TimePDT,TemperatureF,Dew PointF,Humidity,Sea Level PressureIn,VisibilityMPH,Wind Direction,Wind SpeedMPH,Gust SpeedMPH,PrecipitationIn,Events,Conditions,WindDirDegrees,DateUTC
12:15 AM,55.4,48.2,77,30.06,10.0,Calm,Calm,-,N/A,,Clear,0,2013-09-04 07:15:00
12:35 AM,53.6,48.2,82,30.06,10.0,Calm,Calm,-,N/A,,Clear,0,2013-09-04 07:35:00
12:55 AM,53.6,46.4,77,30.06,10.0,Calm,Calm,-,N/A,,Clear,0,2013-09-04 07:55:00
1:15 AM,53.6,46.4,77,30.06,10.0,Calm,Calm,-,N/A,,Clear,0,2013-09-04 08:15:00
1:35 AM,53.6,46.4,77,30.06,10.0,Calm,Calm,-,N/A,,Clear,0,2013-09-04 08:35:00
1:55 AM,53.6,46.4,77,30.06,10.0,Calm,Calm,-,N/A,,Clear,0,2013-09-04 08:55:00
2:15 AM,51.8,46.4,82,30.06,10.0,Calm,Calm,-,N/A,,Clear,0,2013-09-04 09:15:00
2:35 AM,50.0,46.4,87,30.06,10.0,SSW,4.6,-,N/A,,Clear,210,2013-09-04 09:35:00
2:55 AM,51.8,46.4,82,30.06,10.0,SSW,4.6,-,N/A,,Clear,200,2013-09-04 09:55:00
3:15 AM,51.8,46.4,82,30.06,10.0,SW,6.9,-,N/A,,Clear,220,2013-09-04 10:15:00
3:35 AM,51.8,46.4,82,30.06,10.0,SSW,5.8,-,N/A,,Clear,210,2013-09-04 10:35:00
3:55 AM,51.8,46.4,82,30.06,10.0,SSW,4.6,-,N/A,,Clear,200,2013-09-04 10:55:00
4:15 AM,51.8,46.4,82,30.06,10.0,Calm,Calm,-,N/A,,Clear,0,2013-09-04 11:15:00
4:35 AM,51.8,46.4,82,30.06,10.0,SW,6.9,-,N/A,,Clear,220,2013-09-04 11:35:00
4:55 AM,51.8,46.4,82,30.06,10.0,SW,5.8,-,N/A,,Clear,230,2013-09-04 11:55:00
5:15 AM,50.0,46.4,87,30.06,10.0,SSW,5.8,-,N/A,,Clear,210,2013-09-04 12:15:00
5:35 AM,50.0,46.4,87,30.06,10.0,SW,6.9,-,N/A,,Clear,230,2013-09-04 12:35:00
5:55 AM,50.0,46.4,87,30.06,10.0,SW,5.8,-,N/A,,Clear,220,2013-09-04 12:55:00
6:15 AM,50.0,46.4,87,30.06,10.0,SSW,4.6,-,N/A,,Clear,200,2013-09-04 13:15:00
6:35 AM,50.0,46.4,87,30.07,10.0,Calm,Calm,-,N/A,,Clear,0,2013-09-04 13:35:00
6:55 AM,50.0,46.4,87,30.07,10.0,Calm,Calm,-,N/A,,Clear,0,2013-09-04 13:55:00
7:15 AM,50.0,46.4,87,30.07,10.0,SSE,4.6,-,N/A,,Clear,160,2013-09-04 14:15:00
7:35 AM,51.8,46.4,82,30.08,10.0,SSE,4.6,-,N/A,,Clear,150,2013-09-04 14:35:00
7:55 AM,53.6,46.4,77,30.08,10.0,SE,5.8,-,N/A,,Clear,130,2013-09-04 14:55:00
8:15 AM,57.2,46.4,67,30.08,10.0,Calm,Calm,-,N/A,,Clear,0,2013-09-04 15:15:00
8:35 AM,59.0,48.2,67,30.08,10.0,SSE,3.5,-,N/A,,Clear,150,2013-09-04 15:35:00
8:55 AM,60.8,48.2,63,30.08,10.0,ESE,3.5,-,N/A,,Clear,120,2013-09-04 15:55:00
9:15 AM,64.4,48.2,56,30.08,10.0,Calm,Calm,-,N/A,,Clear,0,2013-09-04 16:15:00
9:35 AM,64.4,48.2,56,30.08,10.0,Calm,Calm,-,N/A,,Clear,0,2013-09-04 16:35:00
9:55 AM,66.2,48.2,52,30.08,10.0,Calm,Calm,-,N/A,,Clear,0,2013-09-04 16:55:00
10:15 AM,68.0,48.2,49,30.08,10.0,Calm,Calm,-,N/A,,Clear,0,2013-09-04 17:15:00
10:35 AM,69.8,48.2,46,30.07,10.0,East,3.5,-,N/A,,Clear,80,2013-09-04 17:35:00
10:55 AM,71.6,46.4,41,30.07,10.0,SW,4.6,-,N/A,,Clear,230,2013-09-04 17:55:00
11:15 AM,71.6,44.6,38,30.07,10.0,Calm,Calm,-,N/A,,Clear,0,2013-09-04 18:15:00
11:35 AM,75.2,41.0,29,30.07,10.0,SW,9.2,-,N/A,,Clear,220,2013-09-04 18:35:00
11:55 AM,75.2,39.2,27,30.05,10.0,SW,9.2,16.1,N/A,,Clear,220,2013-09-04 18:55:00
12:15 PM,77.0,33.8,21,30.05,10.0,SW,10.4,16.1,N/A,,Clear,220,2013-09-04 19:15:00
12:35 PM,77.0,35.6,22,30.05,10.0,WSW,10.4,-,N/A,,Clear,250,2013-09-04 19:35:00
12:55 PM,77.0,35.6,22,30.04,10.0,West,8.1,-,N/A,,Clear,280,2013-09-04 19:55:00
1:15 PM,78.8,33.8,20,30.03,10.0,North,4.6,-,N/A,,Clear,350,2013-09-04 20:15:00
1:35 PM,78.8,35.6,21,30.03,10.0,SSW,5.8,-,N/A,,Clear,210,2013-09-04 20:35:00
1:55 PM,78.8,35.6,21,30.03,10.0,Calm,Calm,-,N/A,,Clear,0,2013-09-04 20:55:00
2:15 PM,80.6,35.6,20,30.02,10.0,Calm,Calm,-,N/A,,Clear,0,2013-09-04 21:15:00
2:35 PM,80.6,37.4,21,30.01,10.0,North,4.6,-,N/A,,Clear,360,2013-09-04 21:35:00
2:55 PM,82.4,35.6,19,30.01,10.0,Calm,Calm,-,N/A,,Clear,0,2013-09-04 21:55:00
3:15 PM,82.4,35.6,19,30.00,10.0,NW,11.5,18.4,N/A,,Clear,320,2013-09-04 22:15:00
3:35 PM,82.4,35.6,19,29.99,10.0,NW,4.6,-,N/A,,Partly Cloudy,310,2013-09-04 22:35:00
3:55 PM,84.2,33.8,16,29.98,10.0,NW,12.7,-,N/A,,Scattered Clouds,310,2013-09-04 22:55:00
4:15 PM,82.4,41.0,23,29.98,10.0,NW,13.8,20.7,N/A,,Scattered Clouds,310,2013-09-04 23:15:00
4:35 PM,82.4,41.0,23,29.98,10.0,NW,10.4,18.4,N/A,,Partly Cloudy,310,2013-09-04 23:35:00
4:55 PM,80.6,42.8,26,29.98,10.0,WNW,18.4,24.2,N/A,,Clear,300,2013-09-04 23:55:00
5:15 PM,75.2,44.6,34,29.98,10.0,NW,16.1,20.7,N/A,,Clear,310,2013-09-05 00:15:00
5:35 PM,75.2,44.6,34,29.98,10.0,NW,16.1,23.0,N/A,,Clear,310,2013-09-05 00:35:00
5:55 PM,75.2,44.6,34,29.98,10.0,NNW,16.1,-,N/A,,Clear,330,2013-09-05 00:55:00
6:15 PM,73.4,46.4,38,29.99,10.0,NW,15.0,19.6,N/A,,Clear,320,2013-09-05 01:15:00
6:35 PM,71.6,46.4,41,29.99,10.0,NW,12.7,-,N/A,,Clear,310,2013-09-05 01:35:00
6:55 PM,69.8,48.2,46,29.99,10.0,NW,13.8,-,N/A,,Clear,320,2013-09-05 01:55:00
7:15 PM,68.0,48.2,49,29.99,10.0,NW,11.5,-,N/A,,Clear,320,2013-09-05 02:15:00
7:35 PM,66.2,48.2,52,30.00,10.0,NW,10.4,-,N/A,,Clear,320,2013-09-05 02:35:00
7:55 PM,66.2,48.2,52,30.01,10.0,NW,8.1,-,N/A,,Clear,320,2013-09-05 02:55:00
8:15 PM,64.4,46.4,52,30.02,10.0,NW,6.9,-,N/A,,Clear,320,2013-09-05 03:15:00
8:35 PM,64.4,46.4,52,30.02,10.0,WNW,6.9,-,N/A,,Clear,300,2013-09-05 03:35:00
8:55 PM,62.6,46.4,55,30.04,10.0,SW,6.9,-,N/A,,Clear,220,2013-09-05 03:55:00
9:15 PM,62.6,48.2,59,30.05,10.0,SW,5.8,-,N/A,,Clear,220,2013-09-05 04:15:00
9:35 PM,62.6,48.2,59,30.04,10.0,NW,8.1,-,N/A,,Clear,310,2013-09-05 04:35:00
9:55 PM,62.6,48.2,59,30.05,10.0,Calm,Calm,-,N/A,,Clear,0,2013-09-05 04:55:00
10:15 PM,60.8,48.2,63,30.04,10.0,WNW,6.9,-,N/A,,Clear,300,2013-09-05 05:15:00
10:35 PM,60.8,48.2,63,30.04,10.0,NNW,4.6,-,N/A,,Clear,330,2013-09-05 05:35:00
10:55 PM,59.0,48.2,67,30.04,10.0,Calm,Calm,-,N/A,,Clear,0,2013-09-05 05:55:00
11:15 PM,59.0,48.2,67,30.04,10.0,Calm,Calm,-,N/A,,Clear,0,2013-09-05 06:15:00
11:35 PM,57.2,48.2,72,30.04,10.0,Calm,Calm,-,N/A,,Clear,0,2013-09-05 06:35:00
11:55 PM,55.4,48.2,77,30.05,10.0,Calm,Calm,-,N/A,,Clear,0,2013-09-05 06:55:00